Location: Meanaryar
(48.4161°N, 4.7315°W)
Time: 09:19:53
(UTC+00:00)

Cosmos 1092 Rocket - Pass Details

Date: 17 January 2021
Orbit: 954 x 995 km, 83.0° (Epoch: 02 March)

Event Time Altitude Azimuth Distance (km) Brightness Sun altitude
Rises 20:53:08 0° 220° (SW) 3,662 7.3 -38.9°
Reaches altitude 10° 20:55:58 10° 231° (SW) 2,712 6.6 -39.3°
Maximum altitude 21:01:22 31° 291° (WNW) 1,642 5.5 -40.2°
Enters shadow 21:02:17 29° 307° (NW) 1,682 5.6 -40.4°
Exits shadow 21:09:03 - 2° (N) 3,460 7.0 -41.4°
Sets 21:09:37 0° 3° (N) 3,652 7.1 -41.5°
